Wetbulb
54.78 53.68 53.02 51.89 50.27 49.73 48.91 48.42 48.67 49.50 50.84 51.03 51.60 51.18 51.00 50.94 52.11 51.97 51.28 51.89 51.61 51.33 52.15 51.91 51.76 51.91 51.18 50.79 52.07 49.97 49.51 47.76 42.59 42.48 44.72 46.66 47.19 46.76 46.18 45.33 46.28 47.34 46.46
54.02 53.57 52.94 50.72 49.73 48.74 48.20 48.15 48.80 49.24 50.89 51.22 51.69 51.12 50.88 50.97 51.79 51.57 50.62 51.61 50.82 50.83 51.43 51.57 51.36 52.35 50.01 50.12 49.30 48.43 46.98 45.44 44.71 42.70 43.58 43.76 44.15 45.57 42.79 42.17 42.65 43.17 44.03
52.99 52.53 51.29 50.19 48.48 47.91 47.71 47.75 48.36 49.25 50.41 51.07 51.44 50.69 50.48 50.40 50.97 51.41 50.74 51.21 51.31 51.39 51.65 51.94 51.22 50.27 48.49 48.28 47.71 46.85 46.10 45.77 44.61 44.20 42.16 43.11 43.12 41.89 39.85 39.45 39.68 40.60 40.64
51.63 51.10 50.15 49.33 48.16 47.87 47.59 47.46 47.73 49.16 49.80 50.11 50.58 50.51 50.22 50.18 50.91 51.39 51.23 51.07 51.27 51.52 51.72 51.76 51.07 50.02 48.77 47.38 46.58 46.17 46.41 44.85 44.00 42.04 42.17 40.79 41.16 38.96 39.96 37.61 33.16 35.24 36.40
50.48 49.97 49.47 49.27 48.33 47.62 47.13 47.17 47.62 48.63 49.65 49.87 49.98 49.86 50.19 50.11 50.67 50.76 51.23 50.78 50.55 50.77 51.34 51.81 51.09 46.85 43.87 45.91 47.69 46.82 46.69 44.95 43.44 41.58 40.14 39.88 37.45 33.47 35.58 32.97 33.88 33.38 35.45
50.02 49.45 49.36 48.19 47.48 46.96 46.61 46.55 47.10 47.60 48.69 49.23 49.09 49.43 49.32 50.05 44.42 45.24 49.09 50.72 50.72 51.87 51.55 48.06 45.52 40.79 43.26 42.84 43.67 45.31 47.14 45.52 43.12 40.80 41.13 40.40 39.04 36.13 33.58 34.88 33.81 34.18 36.29
49.13 48.99 47.99 47.71 46.75 46.30 46.16 46.01 46.06 46.84 48.37 48.51 48.79 49.06 48.66 48.51 43.86 44.06 44.26 50.12 50.25 51.23 51.31 47.17 45.94 45.03 42.57 45.09 42.49 42.03 42.21 43.85 44.44 43.67 41.61 41.24 38.91 38.46 36.50 34.31 34.07 34.70 34.60
48.11 48.22 47.53 46.79 45.96 45.63 45.23 45.23 45.57 46.62 47.43 48.02 48.23 48.85 48.89 47.77 43.13 43.24 42.12 48.82 48.40 48.77 49.94 47.03 45.93 44.10 44.56 45.20 44.80 44.04 43.80 44.11 44.29 44.57 44.18 43.88 43.54 40.87 39.97 39.59 38.37 34.43 32.86
46.84 47.51 47.01 46.52 45.32 44.85 44.51 44.55 45.16 45.86 46.58 47.31 47.86 48.27 48.20 45.06 42.07 42.24 45.99 47.57 45.92 45.94 46.96 46.64 45.82 44.92 40.98 42.15 44.40 43.15 42.20 41.60 41.70 42.02 42.93 42.76 41.78 41.13 40.47 37.71 33.13 33.84 32.91
46.16 46.88 46.84 46.30 45.55 44.92 44.61 44.34 44.73 45.56 45.69 46.30 46.23 47.63 42.45 45.32 40.49 41.43 45.89 46.22 44.59 43.49 44.04 43.64 38.00 44.98 40.27 42.20 46.23 42.57 38.37 38.06 38.03 37.94 39.06 39.92 40.37 39.93 38.81 41.17 36.96 34.54 33.64
43.88 44.80 45.52 45.51 45.19 45.42 44.63 44.06 44.18 43.62 44.02 44.37 43.82 44.40 44.76 45.04 42.71 41.36 43.83 45.41 45.25 43.79 43.66 38.49 39.35 41.01 40.86 41.93 44.37 44.78 42.55 37.79 37.99 36.30 35.25 34.72 34.51 35.40 35.18 36.54 38.61 35.49 33.96
41.10 40.86 40.78 41.95 44.07 44.46 43.65 42.11 40.82 42.95 40.77 40.17 39.83 38.51 36.93 42.12 40.29 40.65 43.09 44.27 44.52 44.49 41.69 38.44 40.82 39.99 40.93 41.35 41.93 42.05 40.32 37.96 36.75 35.01 34.45 33.49 33.65 33.49 33.49 34.42 34.72 33.53 33.93
37.72 36.77 38.46 38.29 39.31 40.99 42.01 38.80 39.03 40.20 40.29 39.32 40.42 41.30 38.22 35.77 40.17 40.13 41.85 42.36 41.98 41.24 40.08 40.78 40.38 40.06 40.08 40.54 40.92 39.61 35.74 37.31 36.35 34.81 35.63 35.18 33.98 34.31 33.36 33.07 32.81 33.13 32.95
35.11 35.59 35.65 36.80 37.59 38.07 38.68 40.20 39.78 39.36 38.56 37.48 37.20 39.14 37.59 36.06 37.58 38.72 37.84 41.63 38.25 38.22 38.02 38.46 39.15 38.96 39.05 37.87 35.63 37.24 36.26 37.26 37.61 37.86 34.67 33.18 33.38 33.15 32.95 32.61 32.50 32.32 32.60
34.73 34.62 35.04 35.31 36.53 36.02 37.61 38.95 38.17 38.00 40.01 38.90 38.99 38.90 38.23 37.71 38.57 40.38 40.18 38.75 39.47 37.57 35.59 34.50 34.22 34.13 35.12 34.59 34.16 35.06 34.81 35.18 36.06 34.72 33.87 33.65 32.86 32.95 32.36 32.36 32.35 32.24 32.61
34.03 33.98 34.89 35.07 35.45 34.65 36.06 34.22 37.06 38.74 39.52 39.83 39.66 39.16 32.61 38.77 39.71 39.28 39.84 39.76 39.21 38.22 34.32 34.00 34.25 35.25 36.48 35.72 35.46 34.85 34.38 34.69 35.09 34.83 34.43 34.16 33.74 33.33 32.63 32.19 32.21 32.39 32.60
33.45 34.41 34.61 34.72 35.85 36.51 35.83 35.92 35.14 34.16 37.77 39.27 39.43 39.03 38.61 37.69 39.10 39.25 39.28 39.68 39.19 39.48 35.19 35.48 36.61 36.26 35.61 36.22 36.12 35.68 35.28 36.19 34.56 34.92 34.83 34.52 33.73 33.20 33.15 32.41 32.27 32.20 32.20
32.40 32.86 34.36 35.09 35.50 36.08 36.16 35.96 36.07 35.21 35.14 33.38 35.83 38.12 38.06 38.06 38.49 39.63 39.44 38.93 35.42 36.33 34.55 35.64 35.75 36.40 36.15 36.26 35.83 35.79 34.52 34.09 34.18 34.52 34.31 34.14 33.94 33.49 32.71 32.90 32.92 32.73 32.48
31.56 31.89 32.66 34.83 35.36 34.80 35.18 35.67 35.79 35.63 35.14 33.48 32.97 35.10 34.78 37.49 38.11 38.57 38.96 37.29 36.59 36.08 36.51 37.24 37.18 36.66 36.19 36.04 35.79 35.25 35.35 35.01 34.49 34.27 34.05 34.02 33.93 33.91 33.27 33.49 33.35 33.07 32.82
30.33 31.86 33.33 33.95 34.29 34.64 34.40 34.36 34.71 34.81 34.94 34.81 34.92 34.60 33.71 34.64 34.36 35.43 36.06 35.92 35.35 36.59 36.71 38.23 36.19 36.15 36.42 36.40 35.59 35.41 34.92 34.27 34.07 34.05 33.89 34.02 33.91 34.34 34.23 33.69 33.42 33.07 32.62
30.21 31.00 31.58 33.38 33.73 33.19 33.59 33.81 33.80 33.78 34.09 34.25 34.72 34.38 36.17 35.56 34.75 34.81 34.97 35.21 35.90 36.46 36.75 37.71 35.41 36.35 36.02 35.55 35.30 35.10 35.08 34.78 34.47 34.38 34.14 33.95 33.71 33.55 33.58 33.78 33.29 33.17 33.03
31.92 32.09 32.47 32.51 33.02 33.22 33.33 33.40 33.65 33.84 33.75 33.95 33.27 34.13 36.50 35.18 34.49 34.67 35.00 35.15 35.48 36.08 36.64 37.19 36.35 36.57 36.49 36.33 35.85 35.39 35.19 34.96 34.52 34.38 34.14 33.86 33.71 33.58 33.62 33.45 33.19 33.12 33.02
31.31 31.37 31.75 31.84 32.69 32.93 33.08 33.32 33.51 33.80 33.66 33.86 33.91 33.93 34.42 34.19 34.68 34.87 34.82 34.85 35.38 35.68 36.17 36.42 36.55 35.64 35.45 35.68 36.26 36.48 35.77 35.50 35.54 35.14 34.49 33.84 33.64 33.55 33.71 33.41 33.17 32.83 32.80
31.50 31.66 31.89 32.17 32.36 32.51 32.70 32.89 33.21 33.41 33.55 33.60 33.78 33.89 34.22 34.25 34.13 34.71 34.72 34.81 35.27 36.10 36.35 36.08 36.47 36.10 35.05 34.52 34.78 35.12 35.68 35.37 34.90 35.03 35.15 34.37 33.88 33.48 33.58 33.33 33.25 33.05 32.83
31.27 30.81 31.44 32.28 32.34 32.30 32.29 32.73 32.64 33.06 33.20 33.50 33.58 33.76 34.03 34.32 34.28 34.43 34.67 35.02 35.23 34.96 35.58 35.87 35.87 35.43 34.71 34.60 34.59 34.56 34.12 33.39 34.50 34.35 34.51 34.48 34.03 33.87 33.69 33.48 33.07 32.68 31.84
31.00 31.28 31.52 31.55 31.85 32.16 32.68 32.79 32.94 32.92 33.18 33.28 33.44 33.80 33.81 33.88 34.32 34.38 34.41 34.68 34.71 34.80 34.86 34.76 34.66 34.49 34.22 34.27 34.21 33.63 33.07 33.25 33.58 34.11 34.51 34.34 33.84 33.45 33.38 32.83 32.30 31.55 30.49
MSLP
1005.31 1006.41 1007.32 1008.09 1009.00 1009.94 1010.95 1012.02 1012.86 1013.87 1014.63 1015.53 1016.20 1016.90 1017.08 1017.75 1018.31 1018.68 1019.07 1019.41 1019.81 1020.15 1020.55 1020.96 1021.42 1021.93 1022.47 1023.02 1023.35 1023.82 1024.41 1025.08 1026.60 1028.40 1028.44 1028.53 1028.58 1028.67 1028.92 1029.01 1028.84 1028.97 1029.32
1004.76 1005.92 1006.95 1007.75 1008.61 1009.57 1010.61 1011.58 1012.52 1013.58 1014.45 1015.10 1015.76 1016.74 1016.93 1017.52 1018.23 1018.56 1019.03 1019.37 1019.81 1020.29 1020.65 1021.30 1021.84 1022.18 1022.69 1023.04 1023.46 1024.05 1024.70 1025.31 1026.21 1027.63 1028.48 1028.84 1029.04 1029.19 1029.57 1029.72 1029.82 1029.79 1029.93
1004.47 1005.59 1006.68 1007.56 1008.36 1009.24 1010.22 1011.27 1012.31 1013.29 1014.25 1014.98 1015.57 1016.32 1016.79 1017.31 1018.06 1018.56 1018.93 1019.31 1019.74 1020.18 1020.64 1021.21 1021.78 1022.29 1022.94 1023.34 1023.75 1024.31 1024.86 1025.56 1026.32 1027.15 1028.23 1028.82 1029.16 1029.46 1030.07 1030.19 1030.26 1030.24 1030.25
1004.38 1005.36 1006.31 1007.17 1007.99 1008.85 1009.88 1010.95 1011.99 1013.01 1013.92 1014.78 1015.52 1016.10 1016.66 1017.05 1017.85 1018.40 1018.88 1019.24 1019.64 1020.18 1020.64 1021.13 1021.71 1022.19 1022.81 1023.32 1023.82 1024.31 1024.80 1025.59 1026.43 1027.24 1028.09 1028.79 1029.14 1029.58 1029.71 1030.19 1030.62 1030.78 1030.53
1004.33 1005.26 1006.12 1007.03 1007.85 1008.72 1009.71 1010.72 1011.75 1012.72 1013.58 1014.43 1015.22 1015.90 1016.53 1017.01 1017.60 1018.22 1018.73 1019.10 1019.47 1020.06 1020.59 1021.22 1021.77 1022.18 1022.61 1023.17 1023.61 1024.28 1024.76 1025.50 1026.39 1027.10 1027.95 1028.75 1029.42 1029.76 1029.82 1030.03 1030.62 1030.71 1030.56
1004.29 1005.18 1006.06 1006.85 1007.73 1008.58 1009.44 1010.42 1011.48 1012.54 1013.45 1014.25 1015.01 1015.71 1016.36 1016.91 1017.46 1018.07 1018.58 1019.02 1019.35 1019.85 1020.45 1021.28 1022.02 1022.52 1022.87 1023.30 1023.56 1023.86 1024.13 1024.72 1025.71 1026.62 1027.35 1028.03 1028.60 1029.00 1029.25 1029.78 1030.40 1030.86 1031.11
1004.30 1005.17 1006.03 1006.87 1007.62 1008.52 1009.32 1010.17 1011.16 1012.16 1013.14 1013.99 1014.75 1015.43 1016.18 1016.77 1017.35 1017.92 1018.51 1018.85 1019.28 1019.82 1020.39 1021.21 1021.89 1022.62 1022.92 1023.29 1023.86 1024.41 1024.59 1024.75 1024.91 1025.49 1026.40 1026.95 1027.67 1027.97 1028.50 1029.38 1029.94 1030.34 1030.65
1004.42 1005.05 1005.87 1006.75 1007.60 1008.47 1009.31 1010.13 1011.04 1011.88 1012.79 1013.63 1014.49 1015.22 1015.98 1016.65 1017.28 1017.86 1018.45 1018.80 1019.30 1019.87 1020.37 1021.05 1021.58 1022.42 1022.94 1023.36 1024.04 1024.72 1024.97 1025.12 1025.35 1025.68 1026.03 1026.30 1026.51 1027.30 1027.97 1028.43 1029.32 1030.29 1030.95
1004.59 1005.09 1005.71 1006.48 1007.41 1008.29 1009.14 1009.93 1010.78 1011.67 1012.65 1013.49 1014.20 1014.93 1015.65 1016.67 1017.17 1017.78 1018.40 1018.92 1019.45 1019.95 1020.36 1021.01 1021.52 1022.23 1022.87 1023.19 1023.83 1024.74 1025.22 1025.71 1025.82 1026.01 1026.17 1026.36 1026.74 1027.26 1027.92 1028.78 1029.75 1030.36 1031.01
1004.92 1005.29 1005.83 1006.50 1007.24 1008.00 1008.78 1009.62 1010.52 1011.38 1012.29 1013.21 1014.09 1014.69 1015.37 1016.38 1017.10 1017.69 1018.18 1018.86 1019.67 1020.25 1020.67 1021.14 1021.56 1021.95 1022.67 1023.04 1023.75 1024.54 1025.35 1025.96 1026.28 1026.67 1026.93 1027.15 1027.39 1027.79 1028.11 1028.23 1029.13 1029.88 1030.42
1005.37 1005.79 1006.31 1006.88 1007.43 1008.05 1008.81 1009.63 1010.50 1011.44 1012.31 1013.16 1014.01 1014.64 1015.33 1016.01 1016.99 1017.34 1017.87 1018.67 1019.26 1020.16 1020.80 1021.45 1021.74 1021.79 1022.40 1022.93 1023.20 1023.99 1024.74 1025.58 1026.39 1026.94 1027.49 1028.08 1028.39 1028.51 1028.81 1028.87 1028.98 1029.43 1029.78
1005.69 1006.19 1006.71 1007.23 1007.70 1008.27 1008.98 1009.92 1010.75 1011.63 1012.59 1013.46 1014.23 1015.08 1015.46 1015.99 1016.52 1017.22 1017.54 1018.34 1018.96 1019.76 1020.62 1021.24 1021.60 1021.85 1022.27 1022.94 1023.44 1023.95 1024.67 1025.51 1026.46 1027.13 1027.69 1028.26 1028.41 1028.72 1028.84 1028.91 1029.13 1029.45 1029.48
1006.31 1006.74 1007.13 1007.54 1007.96 1008.42 1009.14 1010.08 1010.98 1011.73 1012.65 1013.62 1014.36 1015.10 1015.79 1016.22 1016.71 1017.04 1017.48 1018.24 1018.84 1019.43 1020.15 1020.84 1021.45 1021.80 1022.35 1022.98 1023.50 1024.16 1024.98 1025.59 1026.37 1027.05 1027.40 1027.76 1028.02 1028.15 1028.72 1029.07 1029.30 1029.53 1029.64
1007.07 1007.48 1007.75 1008.00 1008.44 1008.88 1009.43 1010.06 1010.85 1011.71 1012.55 1013.42 1014.30 1015.04 1015.75 1016.33 1016.79 1017.25 1017.67 1018.31 1018.91 1019.35 1020.07 1020.82 1021.30 1021.91 1022.41 1022.92 1023.76 1024.32 1024.94 1025.43 1025.92 1026.34 1026.82 1027.35 1027.85 1028.18 1028.51 1028.78 1029.19 1029.46 1029.82
1007.66 1008.01 1008.42 1008.74 1009.02 1009.38 1009.79 1010.15 1010.71 1011.33 1011.66 1012.50 1013.35 1014.11 1015.10 1016.02 1016.27 1016.61 1017.27 1018.16 1018.78 1019.24 1020.21 1021.00 1021.70 1022.27 1022.83 1023.30 1023.78 1024.29 1024.86 1025.39 1025.75 1026.03 1026.53 1027.10 1027.60 1027.97 1028.30 1028.60 1028.89 1029.36 1029.51
1008.21 1008.52 1008.76 1009.16 1009.52 1009.85 1010.30 1010.86 1011.00 1011.16 1011.66 1012.31 1012.89 1013.34 1014.17 1014.71 1015.71 1016.51 1017.29 1017.99 1018.56 1019.19 1020.15 1020.81 1021.40 1021.86 1022.48 1022.99 1023.56 1024.22 1024.66 1025.07 1025.34 1025.73 1026.20 1026.70 1027.17 1027.64 1028.06 1028.48 1028.64 1028.93 1029.18
1008.34 1008.77 1008.97 1009.28 1009.62 1009.92 1010.34 1010.86 1011.41 1011.89 1011.77 1012.01 1012.46 1013.14 1013.76 1014.22 1015.12 1016.15 1017.00 1017.72 1018.34 1018.92 1019.53 1020.19 1020.75 1021.33 1021.90 1022.34 1022.91 1023.46 1024.04 1024.35 1024.64 1025.26 1025.78 1026.27 1026.71 1027.25 1027.63 1028.12 1028.49 1028.67 1028.93
1008.74 1008.89 1009.03 1009.11 1009.39 1009.79 1010.18 1010.65 1011.18 1011.76 1012.15 1012.56 1012.66 1012.84 1013.48 1014.08 1014.84 1015.84 1016.61 1017.48 1018.38 1018.56 1019.09 1019.65 1020.10 1020.65 1021.22 1021.68 1022.24 1022.85 1023.43 1023.92 1024.41 1024.87 1025.38 1025.80 1026.26 1026.64 1027.18 1027.52 1027.81 1028.11 1028.54
1009.13 1009.18 1009.25 1009.36 1009.51 1009.79 1010.07 1010.43 1010.88 1011.49 1012.01 1012.46 1013.00 1013.28 1013.58 1014.19 1014.79 1015.50 1016.19 1016.55 1017.22 1017.91 1018.33 1018.86 1019.18 1019.77 1020.40 1020.96 1021.51 1022.11 1022.68 1023.25 1023.69 1024.31 1024.82 1025.28 1025.75 1026.19 1026.54 1026.86 1027.20 1027.54 1027.87
1009.20 1009.24 1009.35 1009.52 1009.68 1009.93 1010.08 1010.45 1010.77 1011.20 1011.69 1012.10 1012.59 1013.21 1013.79 1014.41 1014.85 1015.30 1015.73 1016.11 1016.63 1017.04 1017.45 1017.83 1018.33 1018.81 1019.37 1019.97 1020.66 1021.33 1022.07 1022.64 1023.16 1023.65 1024.10 1024.57 1025.05 1025.49 1025.93 1026.35 1026.73 1027.15 1027.58
1009.17 1009.29 1009.45 1009.70 1009.79 1009.97 1010.13 1010.32 1010.52 1010.99 1011.35 1011.60 1011.95 1012.44 1013.07 1013.54 1014.19 1014.61 1014.98 1015.34 1015.62 1016.09 1016.54 1016.99 1017.51 1017.99 1018.64 1019.27 1019.88 1020.52 1021.18 1021.77 1022.31 1022.79 1023.28 1023.80 1024.29 1024.85 1025.13 1025.67 1026.30 1026.71 1027.24
1009.12 1009.27 1009.49 1009.58 1009.69 1009.85 1009.94 1010.12 1010.30 1010.63 1010.94 1011.24 1011.57 1012.08 1012.60 1013.28 1013.69 1014.14 1014.52 1014.72 1014.96 1015.34 1015.83 1016.30 1016.78 1017.10 1017.62 1018.11 1018.82 1019.58 1020.19 1020.76 1021.34 1021.91 1022.53 1023.09 1023.59 1024.11 1024.59 1025.15 1025.76 1026.32 1026.98
1008.93 1009.18 1009.36 1009.51 1009.57 1009.64 1009.71 1009.78 1009.99 1010.35 1010.51 1010.77 1011.18 1011.71 1012.28 1012.61 1012.89 1013.21 1013.59 1014.05 1014.53 1014.92 1015.24 1015.63 1016.02 1016.41 1016.95 1017.38 1017.68 1018.33 1019.13 1019.64 1020.16 1020.81 1021.51 1022.30 1022.88 1023.34 1023.96 1024.47 1025.09 1025.84 1026.55
1008.89 1008.89 1009.04 1009.10 1009.02 1009.08 1009.28 1009.52 1009.69 1009.88 1010.06 1010.33 1010.68 1011.11 1011.62 1012.01 1012.25 1012.44 1012.76 1013.24 1013.71 1014.26 1014.68 1014.97 1015.22 1015.59 1016.17 1016.59 1017.08 1017.66 1018.14 1018.63 1019.22 1019.85 1020.48 1021.32 1022.18 1022.76 1023.38 1023.89 1024.44 1025.18 1025.95
1008.19 1008.42 1008.37 1008.31 1008.38 1008.47 1008.69 1008.96 1009.20 1009.49 1009.74 1009.91 1010.24 1010.63 1011.03 1011.27 1011.56 1011.82 1012.08 1012.45 1012.85 1013.31 1013.73 1014.07 1014.60 1014.94 1015.40 1015.90 1016.43 1016.95 1017.43 1017.91 1018.52 1019.19 1020.03 1020.65 1021.47 1022.13 1022.78 1023.44 1024.07 1024.98 1025.72
1007.55 1007.62 1007.92 1008.04 1008.09 1008.18 1008.30 1008.50 1008.74 1009.03 1009.31 1009.55 1009.79 1010.05 1010.39 1010.65 1010.80 1011.08 1011.42 1011.82 1012.22 1012.54 1012.94 1013.28 1013.69 1014.16 1014.74 1015.41 1015.85 1016.29 1016.85 1017.49 1018.13 1018.69 1019.42 1020.16 1020.96 1021.72 1022.40 1023.11 1023.88 1024.71 1025.65
Wind_Speed
18 17 17 15 15 15 13 13 13 13 13 12 11 8 7 7 6 6 6 6 7 6 6 6 7 8 5 4 4 4 5 6 8 2 1 3 4 6 6 6 6 7 6
17 16 16 15 15 15 14 14 14 14 12 13 11 9 8 8 7 7 7 6 7 7 7 7 7 6 6 6 4 6 6 5 7 13 2 2 4 5 5 5 4 5 5
16 16 14 15 15 16 15 15 14 14 12 11 11 10 8 8 7 7 7 7 7 7 7 9 8 8 6 5 5 6 5 7 7 9 4 2 2 2 4 4 3 4 3
14 15 16 16 16 15 15 15 14 13 13 11 10 9 7 8 7 7 7 7 7 6 7 8 8 9 9 8 6 7 8 8 9 8 6 3 2 0 2 3 2 2 0
14 15 15 14 15 15 16 15 14 14 12 12 11 8 7 8 7 7 7 7 8 7 7 7 7 9 11 10 9 7 9 7 7 7 5 3 2 1 3 2 2 1 2
14 14 13 15 15 16 16 15 15 13 12 11 10 10 10 6 12 11 9 8 8 10 10 6 7 10 11 12 11 9 10 12 8 5 4 4 4 3 3 3 3 2 2
13 12 13 14 15 15 15 15 15 15 13 12 11 11 10 7 14 13 11 7 9 11 11 8 7 5 7 7 9 9 7 8 7 6 7 5 5 7 6 4 4 2 2
12 13 14 15 15 14 15 15 14 13 14 13 11 11 10 7 13 13 10 7 6 7 9 9 9 9 7 10 9 6 6 5 6 3 5 5 5 7 5 4 5 4 2
11 13 14 15 15 15 15 15 13 13 11 11 11 12 11 8 14 14 9 7 6 7 7 8 9 9 11 13 10 7 6 3 5 7 6 6 7 10 8 6 2 3 1
7 10 11 13 15 16 15 15 13 12 12 9 10 10 10 11 12 14 10 6 6 5 5 6 10 10 15 14 10 9 7 5 6 4 3 6 6 6 9 3 5 3 2
6 6 7 8 11 11 12 9 12 10 10 10 9 7 9 11 12 15 13 7 7 6 6 4 3 12 14 13 9 8 7 8 7 5 3 3 3 3 2 2 3 3 3
7 7 7 7 7 9 12 9 9 10 9 8 8 5 3 8 13 12 14 9 10 7 6 4 5 12 13 11 6 9 12 9 5 4 3 2 2 1 1 3 3 3 2
6 6 6 7 6 8 11 9 8 9 9 8 8 7 4 2 6 13 14 12 11 6 5 7 10 12 12 9 8 11 8 5 5 3 4 4 2 3 4 3 3 4 3
7 6 5 6 6 6 5 8 9 9 8 8 7 7 4 3 4 5 4 6 7 6 8 5 6 7 7 6 5 6 4 5 6 5 3 2 3 3 2 2 2 2 2
6 5 4 4 5 5 5 6 7 5 9 11 10 10 11 8 8 10 11 7 6 6 7 4 3 3 3 3 3 4 4 4 4 4 3 3 2 3 2 2 2 2 2
5 3 4 4 3 3 5 4 9 7 11 10 10 8 2 8 15 14 14 12 13 15 4 3 3 4 6 5 5 5 3 5 4 4 3 4 4 4 3 2 1 2 2
6 6 4 4 5 5 5 6 6 5 4 12 14 12 13 10 19 17 15 16 17 13 4 4 6 6 4 6 6 5 6 6 4 4 4 5 4 3 5 3 2 2 2
3 5 5 3 4 5 5 5 5 6 6 2 0 8 14 14 17 22 18 14 6 3 3 4 5 7 6 6 6 6 4 5 4 4 4 5 5 4 3 5 5 4 3
2 2 3 4 4 3 4 5 5 5 5 3 2 2 6 11 15 20 20 9 9 8 6 7 7 8 6 6 6 5 5 6 5 6 5 5 5 5 3 4 5 6 5
1 2 3 4 4 4 3 4 4 4 6 6 6 5 5 5 5 8 9 8 7 8 8 10 7 8 8 8 7 6 6 5 6 5 5 6 6 6 5 5 6 6 4
2 2 4 3 5 3 4 4 4 4 4 5 4 6 11 8 8 9 9 9 10 9 9 10 7 8 7 7 7 7 7 6 7 7 6 6 7 7 5 5 5 5 6
3 3 4 6 4 5 4 4 4 4 4 4 3 5 17 8 6 7 9 8 8 8 7 10 8 9 9 9 9 8 8 8 7 7 6 6 7 6 6 6 6 6 7
4 5 6 6 7 6 5 5 5 6 5 5 5 5 7 7 8 8 8 8 7 7 8 8 9 7 7 7 8 9 10 9 9 8 9 8 7 8 8 8 8 7 7
3 6 7 6 6 7 7 5 4 5 5 5 6 7 7 7 7 8 7 7 8 9 9 8 9 10 9 8 7 8 8 7 8 9 11 10 8 9 8 8 9 9 8
5 3 4 4 4 4 4 4 4 4 4 5 5 5 6 7 7 7 7 7 8 8 10 9 8 10 12 12 11 12 10 12 11 11 8 10 11 13 10 9 10 8 8
5 5 4 3 4 3 4 5 5 5 5 5 5 6 6 7 7 7 7 8 8 8 9 8 9 12 12 11 13 13 14 14 13 15 11 10 11 10 10 11 13 9 10
Wind_Direction
171 173 174 168 161 155 155 152 150 149 151 157 160 161 149 145 151 132 142 140 131 128 118 121 114 113 121 125 103 109 109 106 120 92 99 54 59 69 51 41 50 68 52
168 169 172 160 156 152 153 152 148 151 156 159 156 160 147 146 152 145 150 148 141 139 135 123 124 121 115 112 100 105 117 113 132 138 129 88 71 76 79 64 41 48 57
162 163 162 163 156 154 151 148 148 151 156 157 153 158 153 147 148 144 150 148 147 145 142 140 146 133 125 117 113 110 107 117 128 143 125 112 135 114 83 71 71 71 61
161 162 164 164 158 153 148 148 148 152 151 153 155 154 153 142 147 146 150 146 141 143 143 142 142 141 139 135 128 132 130 122 129 130 137 124 118 64 129 143 51 27 147
161 163 165 158 152 147 147 149 147 152 154 152 150 148 147 146 153 149 152 148 143 143 143 142 139 139 143 151 147 147 135 131 138 143 136 129 148 138 169 198 120 215 269
162 163 159 152 150 151 149 148 147 147 148 149 150 152 151 154 154 154 150 151 145 155 152 123 129 137 146 148 134 138 155 152 152 141 157 177 179 182 157 157 120 124 236
162 156 152 154 150 152 151 148 151 153 152 156 153 152 156 149 159 161 154 149 149 165 163 142 132 132 140 138 125 124 136 153 152 147 165 177 166 183 151 150 170 141 172
167 154 155 153 150 149 150 152 152 155 158 159 155 155 154 157 163 160 150 140 138 152 157 154 145 150 152 142 136 139 136 131 157 152 167 174 182 164 152 147 148 118 47
171 160 158 155 152 154 156 156 154 153 154 159 159 158 155 155 165 160 141 138 142 148 144 151 151 152 158 145 141 147 139 102 71 90 102 122 122 131 131 109 92 95 1
162 159 154 156 158 160 156 156 156 155 155 152 155 159 146 156 173 164 146 142 145 146 138 145 156 159 165 162 156 149 149 172 141 102 70 58 79 124 143 112 151 140 133
130 128 135 144 153 154 148 146 151 147 145 151 151 150 148 157 175 171 151 157 156 154 160 157 168 157 167 165 144 156 172 149 154 136 101 73 65 104 123 70 139 133 151
126 124 130 135 137 144 142 138 135 139 136 141 137 130 135 159 168 183 158 147 147 154 164 169 162 158 163 161 136 129 128 118 124 120 107 130 146 169 197 144 114 105 69
105 114 122 122 128 135 138 134 128 138 148 150 157 162 152 143 164 172 164 156 160 135 151 167 152 157 154 157 153 137 132 130 141 141 173 185 172 156 128 104 86 84 66
111 113 108 119 119 119 125 148 147 153 151 153 152 163 152 140 148 159 160 159 144 122 134 140 148 146 140 128 123 141 148 154 166 176 160 111 122 139 138 142 122 122 105
106 115 118 110 127 125 127 151 150 163 167 167 177 170 166 184 193 177 173 168 160 151 111 91 99 97 130 125 104 139 137 145 151 148 135 144 132 135 129 138 112 134 153
116 126 135 129 123 119 128 91 41 144 154 158 155 168 141 142 163 163 167 150 147 140 94 135 144 153 164 162 159 159 155 170 171 154 141 155 162 160 145 135 124 151 159
138 154 146 141 150 155 144 150 146 11 114 169 166 162 165 163 169 173 160 159 164 153 144 162 165 165 171 171 170 168 176 193 155 166 164 174 149 149 152 156 145 149 158
82 150 157 161 154 153 156 156 150 164 168 175 241 156 165 162 164 181 172 146 161 196 147 165 172 176 178 177 174 178 164 150 162 169 168 166 171 157 157 173 180 164 154
130 162 157 161 176 161 149 155 155 162 169 134 102 83 156 157 164 175 173 184 185 191 185 190 184 181 179 174 175 172 172 177 169 165 174 171 174 168 176 178 179 169 140
193 200 187 175 168 179 159 160 159 161 168 171 180 175 143 124 171 182 188 188 184 193 190 197 189 181 180 180 174 173 174 168 169 171 171 173 175 182 183 178 175 169 162
202 214 198 200 195 177 191 180 158 161 174 180 178 159 172 183 185 192 194 197 197 196 198 204 186 181 177 173 169 172 177 179 180 179 174 177 170 181 167 163 158 150 144
193 206 209 211 204 204 195 180 174 177 175 175 146 161 175 189 184 195 207 205 202 202 199 205 199 187 184 182 176 178 184 186 182 177 172 170 170 167 161 157 153 150 148
194 198 205 211 210 202 195 188 183 185 180 174 162 165 184 196 198 198 200 199 197 201 203 200 194 185 183 184 176 180 188 195 189 176 171 169 170 165 165 161 155 152 154
206 216 215 211 203 207 210 200 192 191 181 181 179 178 188 198 202 203 193 187 187 206 210 200 198 184 182 175 175 186 188 175 169 176 165 163 167 157 155 153 152 151 147
183 211 212 205 201 193 184 195 191 194 196 190 191 191 191 195 199 204 195 188 190 186 200 193 194 184 178 180 185 182 170 160 162 159 160 157 161 157 154 151 148 145 137
196 190 211 207 206 199 199 208 213 208 207 202 197 195 193 198 201 198 194 195 195 192 186 186 183 177 174 185 183 168 161 160 158 158 154 153 154 153 152 149 147 144 145